#timestamp,LO_Frequency,Hit,StdDev 
1542862815.0,286046999.9,N
1542862815.9,286046999.9,N
1542862835.8,286047000.1,N
1542862855.6,286047004.3,N
1542862875.4,286047002.1,N
1542862895.3,286047001.8,N
1542862915.1,286047002.3,N
1542862935.9,286047002.7,N
1542862955.7,286047000.3,N
1542862975.5,286047000.6,N
1542862995.4,286046998.5,N
1542863015.2,286047000.3,N
1542863035.0,286047002.2,N
1542863035.9,286047002.2,N
1542863055.8,286047002.6,N
1542863075.6,286047001.6,N
1542863095.5,286047001.9,N
1542863115.3,286046999.8,N
1542863135.1,286047000.3,N
1542863155.9,286047000.2,N
1542863175.7,286047000.6,N
1542863195.6,286047001.0,N
1542863215.4,286046998.6,N
1542863235.2,286046998.9,N
1542863255.1,286047000.4,N
1542863256.0,286047000.4,N
1542863275.8,286047001.1,N
1542863295.7,286047000.4,N
1542863315.5,286047000.4,N
1542863335.3,286047002.7,N
1542863355.2,286047001.0,N
1542863375.0,286046999.7,N
1542863375.9,286046999.7,N
1542863395.7,286047002.8,N
1542863415.6,286046999.9,N
1542863465.5,286047000.4,E
1542863475.4,286047000.7,N
1542863495.2,286047001.1,P
1542863515.0,286047000.9,P
1542863516.0,286047000.9,Y
1542863535.8,286046998.3,P
1542863555.6,286046999.2,N
1542863575.5,286046999.6,N
1542863595.3,286046997.0,Y
1542863615.1,286046997.0,P
1542863635.9,286046996.7,N
1542863655.7,286046999.5,N
1542863675.6,286046999.3,N
1542863695.4,286046998.1,N
1542863715.2,286047002.7,N
1542863735.1,286047000.0,N
1542863736.0,286047000.0,N
1542863755.8,286046998.2,N
1542863775.7,286046999.1,N
1542863795.5,286046999.4,N
1542863815.3,286046995.3,Y
1542863835.2,286046997.4,P
1542863855.0,286046996.7,P
1542863855.9,286046996.7,P
1542863875.7,286046998.7,N
1542863895.6,286046999.0,N
1542863915.4,286046999.2,N
1542863935.3,286046996.7,Y
1542863955.1,286047001.0,P
1542863975.8,286046998.2,N
1542863995.7,286046998.2,N
1542864015.5,286046997.0,N
1542864035.4,286046998.1,N
1542864055.2,286046998.2,N
1542864075.0,286047002.4,N
1542864075.9,286047002.4,N
1542864095.8,286047002.5,N
1542864115.6,286047001.4,N
1542864135.4,286047002.2,N
1542864155.3,286046999.9,N
1542864175.1,286047002.4,N
1542864195.9,286047002.1,N
1542864215.7,286047002.7,N
1542864235.5,286047001.5,N
1542864255.4,286047002.4,N
1542864275.2,286047004.4,N
1542864295.1,286047003.6,N
1542864296.0,286047003.6,N
1542864315.8,286047004.3,N
1542864335.6,286047006.0,N
1542864355.5,286047003.3,N
1542864375.3,286047003.2,N
1542864395.1,286047003.3,N
1542864415.9,286047004.0,N
1542864435.7,286047004.0,N
1542864455.6,286047002.0,N
1542864475.4,286047001.9,N
1542864495.2,286047003.4,N
1542864515.1,286047003.4,N
1542864516.0,286047003.4,N
1542864535.8,286047005.5,N
1542864555.7,286047005.8,N
1542864575.5,286047003.8,N
1542864595.3,286047001.3,N
1542864615.2,286047003.3,N
1542864635.9,286047006.0,Y
1542864655.7,286047001.5,P
1542864675.6,286047002.1,N
1542864695.4,286047001.6,N
1542864715.3,286047003.9,Y
1542864735.1,286046999.7,P
1542864736.0,286046999.7,N
1542864755.8,286047002.3,N
1542864775.7,286047002.6,N
1542864795.5,286047001.8,N
1542864815.4,286047003.3,N
1542864835.2,286047003.4,N
1542864855.0,286047005.9,Y
1542864855.9,286047005.9,P
1542864875.8,286047001.9,N
1542864895.6,286047001.3,N
1542864915.4,286047004.3,N
1542864935.3,286047003.9,N
1542864955.1,286047003.6,N
1542864975.9,286047005.5,Y
1542864995.7,286047000.6,P
1542865015.5,286047002.7,N
1542865035.4,286047001.8,N
1542865055.2,286047001.7,N
1542865075.1,286047001.5,N
1542865076.0,286047001.5,N
1542865095.8,286047004.3,Y
1542865115.6,286047002.2,P
1542865135.5,286047002.0,P
1542865155.3,286047004.3,P
1542865175.2,286047004.2,Y
1542865195.9,286047002.7,P
1542865215.7,286046999.7,P
1542865235.6,286047004.3,P
1542865255.4,286047004.4,N
1542865275.2,286047001.5,N
1542865295.1,286047001.4,N
1542865296.0,286047001.4,N
1542865315.8,286047001.6,N
1542865335.7,286047002.6,N
1542865355.5,286047003.9,N
1542865375.3,286047004.2,Y
1542865395.2,286047002.0,P
1542865415.0,286047001.8,P
1542865415.9,286047001.8,P
1542865435.8,286047004.3,Y
1542865455.6,286047002.4,P
1542865475.4,286047002.1,P
1542865495.3,286047001.7,P
1542865515.1,286047004.1,Y
1542865535.8,286047002.4,P
1542865555.7,286047001.5,P
1542865575.5,286047001.7,P
1542865595.4,286047003.8,Y
1542865615.2,286046999.8,P
1542865635.0,286047001.9,N
1542865635.9,286047001.9,N
1542865655.8,286047000.4,N
1542865675.6,286047001.0,N
1542865695.5,286047002.0,N
1542865715.3,286047003.8,Y
1542865735.1,286047001.4,P
1542865755.9,286047002.4,P
1542865775.7,286047001.4,N
1542865795.6,286047003.7,Y
1542865815.4,286047001.9,P
1542865835.2,286047001.5,P
1542865855.1,286047001.8,P
1542865856.0,286047001.8,Y
1542865875.8,286047000.5,P
1542865895.7,286046998.5,N
1542865915.5,286047000.8,N
1542865935.3,286047001.4,N
1542865955.2,286047002.3,N
1542865975.9,286047003.3,N
1542865995.7,286047003.0,N
1542866015.6,286047005.3,Y
1542866035.4,286047003.7,P
1542866055.3,286047005.6,P
1542866075.1,286047005.9,P
1542866076.0,286047005.9,Y
1542866095.8,286047000.0,P
1542866115.7,286047000.2,N
1542866135.5,286047004.4,N
1542866155.3,286047001.8,N
1542866175.2,286047000.2,N
1542866195.0,286047000.1,N
1542866195.9,286047000.1,N
1542866215.8,286047001.5,N
1542866235.6,286047004.4,N
1542866255.4,286047001.3,N
1542866275.3,286047003.7,N
1542866295.1,286047004.1,N
1542866315.8,286047002.6,N
1542866335.7,286047004.3,N
1542866355.5,286047004.4,N
1542866375.4,286047003.6,N
1542866395.2,286047003.1,N
